Tracking 27420 objects as of 28-May-2023
HD Live streaming from Space Station
objects crossing your sky now

OV3-3

Track OV3-3 now!
10-day predictions
OV3-3 is classified as:


NORAD ID: 2389
Int'l Code: 1966-070A
Perigee: 345.1 km
Apogee: 2,126.6 km
Inclination: 81.3 °
Period: 110.0 minutes
Semi major axis: 7606 km
RCS: 0.7052 m2 (medium)
Launch date: August 4, 1966
Source: United States (US)
Launch site: AIR FORCE WESTERN TEST RANGE (AFWTR)
Your satellite tracking list
Your tracking list is empty




NASA's NSSDC Master Catalog

Two Line Element Set (TLE):
1 02389U 66070A   23147.87791775  .00009644  00000-0  49999-3 0  9995
2 02389  81.3349 207.6161 1170976  94.0598 279.4915 13.08563397450901
Source of the keplerian elements: AFSPC